Regional Weather Roundup
Issued by NWS

Home | Current Version | Previous Version | Text Only | Print | Product List | Glossary Off
Versions: 1 2 3 4 5 6 7 8 9 10 11 12 13 14 15 16 17 18 19 20 21 22 23 24 25 26 27 28 29 30 31 32 33 34 35 36 37 38 39 40 41 42 43 44 45 46 47 48 49 50

000
ASUS43 KTOP 161708
RWRKS

WEATHER ROUNDUP FOR KANSAS
NATIONAL WEATHER SERVICE GOODLAND KS
1100 AM CST SAT DEC 16 2017

NOTE:  "FAIR" INDICATES FEW OR NO CLOUDS BELOW 12,000 FEET WITH NO
SIGNIFICANT WEATHER AND/OR OBSTRUCTIONS TO VISIBILITY.

KSZ001>006-013>018-027>032-041>047-161800-
NORTHWEST KANSAS

CITY           SKY/WX    TMP DP  RH WIND       PRES   REMARKS
GOODLAND       SUNNY     51  13  21 NE15      29.78R
HAYS           SUNNY     43  21  41 SW8       29.79R
HILL CITY      SUNNY     48  18  30 NE9       29.79R
RUSSELL        SUNNY     44  23  43 S14       29.79R
$$

KSZ061>065-074>080-084>089-161800-
SOUTHWEST KANSAS

CITY           SKY/WX    TMP DP  RH WIND       PRES   REMARKS
DODGE CITY     SUNNY     46  22  38 S16       29.78S
ELKHART        SUNNY     53  23  30 SW12      29.72F
GARDEN CITY    SUNNY     42  20  41 S14       29.75R
GREAT BEND     SUNNY     48  25  40 S13       29.81S
LIBERAL        SUNNY     46  21  37 S18       29.78R
PRATT          SUNNY     48  23  37 S18       29.83S
$$

KSZ066>073-081>083-090>101-161800-
SOUTHEAST KANSAS

CITY           SKY/WX    TMP DP  RH WIND       PRES   REMARKS
CHANUTE        SUNNY     51  27  39 SW20G29   29.96S
COFFEYVILLE    SUNNY     50  27  40 S20G28    30.01S
HUTCHINSON     SUNNY     50  27  40 S18       29.85S
MEDICINE LODGE   N/A     45  27  49 S16G22    29.87S
NEWTON         SUNNY     48  27  44 S20       29.88R
PARSONS        SUNNY     52  28  39 S13G24    30.00S
WICHITA INTL   SUNNY     50  28  42 S18       29.89S
WICHITA JABRA  SUNNY     49  27  42 S18G24    29.89S
WICHITA MCCONL SUNNY     50  26  39 SW18      29.89F
WINFIELD       SUNNY     51  29  42 S14       29.95S
$$

KSZ007>012-019>026-033>040-048>060-102>105-161800-
NORTHEAST KANSAS

CITY           SKY/WX    TMP DP  RH WIND       PRES   REMARKS
CONCORDIA      SUNNY     44  23  43 S10       29.82S
EMPORIA        SUNNY     52  27  38 S21G26    29.89S
LAWRENCE       SUNNY     49  27  42 S13       29.90F
MANHATTAN      SUNNY     50  26  39 SW13      29.86R
MARYSVILLE     SUNNY     46  27  46 SW8       29.85R
OLATHE IND     SUNNY     50  27  40 SW15      29.92S
OLATHE EXE     SUNNY     48  27  44 SW10      29.91S
SALINA         SUNNY     48  27  44 S12       29.85S
TOPEKA BILLARD SUNNY    N/A N/A N/A S10       29.89S
TOPEKA FORBES  SUNNY     50  28  42 S16       29.89S
$$




USA.gov is the U.S. government's official web portal to all federal, state and local government web resources and services.